• In Belarus
  • List of Countries
  • For 7 days
  • Water Temperature
  • Satellite Maps
  • Weather Map
  • Weather Widgets
  • user-avatar
    Login

    Hourly Weather Kaznacheevo

    Today, 22 September, Saturday

    Time Temperature Precipitation Wind Pressure Humidity
    00:00 +17°C° 0 mm 2 mps 747 mmHg 73%
    01:00 +17°C° 0 mm 2 mps 747 mmHg 74%
    02:00 +17°C° 0 mm 2 mps 746 mmHg 71%
    03:00 +17°C° 0 mm 2 mps 746 mmHg 71%
    04:00 +16°C° 0 mm 2 mps 746 mmHg 72%
    05:00 +16°C° 0 mm 2 mps 746 mmHg 72%
    06:00 +17°C° 0 mm 3 mps 746 mmHg 70%
    07:00 +19°C° 0 mm 3 mps 746 mmHg 67%
    08:00 +20°C° 0 mm 4 mps 746 mmHg 63%
    09:00 +21°C° 0 mm 4 mps 745 mmHg 59%
    10:00 +23°C° 0 mm 5 mps 745 mmHg 56%
    11:00 +26°C° 0 mm 5 mps 745 mmHg 52%
    12:00 +26°C° 0 mm 5 mps 745 mmHg 50%
    13:00 +27°C° 0 mm 6 mps 744 mmHg 48%
    14:00 +27°C° 0 mm 6 mps 744 mmHg 46%
    15:00 +26°C° 0 mm 5 mps 743 mmHg 51%
    16:00 +25°C° 0 mm 4 mps 743 mmHg 56%
    17:00 +22°C° 0 mm 3 mps 742 mmHg 61%
    18:00 +22°C° 0 mm 4 mps 742 mmHg 60%
    19:00 +21°C° 0 mm 4 mps 741 mmHg 60%
    20:00 +20°C° 0 mm 4 mps 741 mmHg 59%
    21:00 +20°C° 0 mm 5 mps 741 mmHg 58%
    22:00 +20°C° 0 mm 5 mps 740 mmHg 56%
    23:00 +19°C° 0 mm 5 mps 740 mmHg 55%

    Tomorrow, 23 September, Sunday

    Time Temperature Precipitation Wind Pressure Humidity
    00:00 +19°C° 0 mm 5 mps 740 mmHg 57%
    01:00 +17°C° 0 mm 5 mps 739 mmHg 58%
    02:00 +18°C° 0 mm 4 mps 739 mmHg 60%
    03:00 +16°C° 0.3 mm 5 mps 739 mmHg 66%
    04:00 +15°C° 0.3 mm 5 mps 739 mmHg 72%
    05:00 +14°C° 0.3 mm 5 mps 739 mmHg 78%
    06:00 +12°C° 0.8 mm 5 mps 739 mmHg 81%
    07:00 +10°C° 0.8 mm 6 mps 739 mmHg 84%
    08:00 +9°C° 0.8 mm 6 mps 740 mmHg 87%
    09:00 +9°C° 0.2 mm 5 mps 740 mmHg 85%
    10:00 +9°C° 0.2 mm 5 mps 741 mmHg 83%
    11:00 +11°C° 0.2 mm 4 mps 741 mmHg 81%
    12:00 +11°C° 0 mm 4 mps 741 mmHg 79%
    13:00 +12°C° 0 mm 4 mps 741 mmHg 77%
    14:00 +12°C° 0 mm 4 mps 742 mmHg 76%
    15:00 +12°C° 0 mm 4 mps 741 mmHg 75%
    16:00 +12°C° 0 mm 3 mps 741 mmHg 75%
    17:00 +12°C° 0 mm 3 mps 741 mmHg 75%
    18:00 +11°C° 0 mm 3 mps 741 mmHg 79%
    19:00 +10°C° 0 mm 3 mps 741 mmHg 82%
    20:00 +10°C° 0 mm 3 mps 741 mmHg 86%
    21:00 +9°C° 0 mm 3 mps 741 mmHg 87%
    22:00 +9°C° 0 mm 3 mps 741 mmHg 88%
    23:00 +8°C° 0 mm 3 mps 741 mmHg 89%

    Day after tomorrow, 24 September, Monday

    Time Temperature Precipitation Wind Pressure Humidity
    00:00 +8°C° 0 mm 3 mps 742 mmHg 90%
    01:00 +8°C° 0 mm 3 mps 742 mmHg 90%
    02:00 +8°C° 0 mm 3 mps 742 mmHg 91%
    03:00 +8°C° 0 mm 3 mps 741 mmHg 89%
    04:00 +8°C° 0 mm 3 mps 741 mmHg 88%
    05:00 +8°C° 0 mm 3 mps 741 mmHg 87%
    06:00 +8°C° 0 mm 4 mps 741 mmHg 83%
    07:00 +10°C° 0 mm 4 mps 740 mmHg 79%
    08:00 +10°C° 0 mm 5 mps 740 mmHg 75%
    09:00 +10°C° 0.3 mm 5 mps 740 mmHg 75%
    10:00 +10°C° 0.3 mm 6 mps 739 mmHg 74%
    11:00 +11°C° 0.3 mm 6 mps 739 mmHg 74%
    12:00 +10°C° 1.4 mm 7 mps 738 mmHg 77%
    13:00 +9°C° 1.4 mm 8 mps 736 mmHg 81%
    14:00 +8°C° 1.4 mm 9 mps 735 mmHg 85%
    15:00 +8°C° 2.3 mm 9 mps 734 mmHg 86%
    16:00 +10°C° 2.3 mm 9 mps 732 mmHg 88%
    17:00 +9°C° 2.3 mm 10 mps 731 mmHg 89%
    18:00 +11°C° 1 mm 10 mps 730 mmHg 88%
    19:00 +11°C° 1 mm 10 mps 728 mmHg 88%
    20:00 +11°C° 1 mm 10 mps 727 mmHg 87%
    21:00 +9°C° 0.1 mm 10 mps 727 mmHg 85%
    22:00 +8°C° 0.1 mm 11 mps 727 mmHg 83%
    23:00 +7°C° 0.1 mm 11 mps 727 mmHg 81%

    25 September, Tuesday

    Time Temperature Precipitation Wind Pressure Humidity
    00:00 +7°C° 0 mm 11 mps 728 mmHg 80%
    01:00 +7°C° 0 mm 11 mps 728 mmHg 80%
    02:00 +7°C° 0 mm 11 mps 729 mmHg 80%
    03:00 +7°C° 0 mm 11 mps 730 mmHg 80%
    04:00 +7°C° 0 mm 10 mps 730 mmHg 80%
    05:00 +7°C° 0 mm 10 mps 731 mmHg 80%
    06:00 +7°C° 0.1 mm 10 mps 732 mmHg 79%
    07:00 +7°C° 0.1 mm 10 mps 733 mmHg 78%
    08:00 +7°C° 0.1 mm 10 mps 734 mmHg 78%
    09:00 +7°C° 0.1 mm 9 mps 735 mmHg 77%
    10:00 +7°C° 0.1 mm 9 mps 736 mmHg 76%
    11:00 +6°C° 0.1 mm 9 mps 736 mmHg 75%
    12:00 +6°C° 0.1 mm 9 mps 737 mmHg 75%
    13:00 +6°C° 0.1 mm 9 mps 738 mmHg 74%
    14:00 +6°C° 0.1 mm 8 mps 739 mmHg 74%
    15:00 +6°C° 0.1 mm 8 mps 740 mmHg 74%
    16:00 +6°C° 0.1 mm 7 mps 740 mmHg 74%
    17:00 +5°C° 0.1 mm 7 mps 741 mmHg 74%
    18:00 +5°C° 0.1 mm 6 mps 741 mmHg 74%
    19:00 +5°C° 0.1 mm 6 mps 742 mmHg 74%
    20:00 +6°C° 0.1 mm 5 mps 743 mmHg 74%
    21:00 +6°C° 0 mm 5 mps 743 mmHg 74%
    22:00 +5°C° 0 mm 5 mps 744 mmHg 73%
    23:00 +5°C° 0 mm 5 mps 744 mmHg 73%

    26 September, Wednesday

    Time Temperature Precipitation Wind Pressure Humidity
    00:00 +5°C° 0 mm 5 mps 745 mmHg 75%
    01:00 +5°C° 0 mm 5 mps 746 mmHg 76%
    02:00 +3°C° 0 mm 5 mps 746 mmHg 78%
    03:00 +4°C° 0 mm 4 mps 747 mmHg 80%
    04:00 +3°C° 0 mm 4 mps 747 mmHg 82%
    05:00 +3°C° 0 mm 4 mps 748 mmHg 84%
    06:00 +3°C° 0 mm 4 mps 748 mmHg 78%
    07:00 +4°C° 0 mm 4 mps 749 mmHg 73%
    08:00 +3°C° 0 mm 5 mps 749 mmHg 68%
    09:00 +6°C° 0 mm 5 mps 749 mmHg 64%
    10:00 +7°C° 0 mm 5 mps 749 mmHg 60%
    11:00 +9°C° 0 mm 6 mps 749 mmHg 56%
    12:00 +9°C° 0 mm 6 mps 749 mmHg 55%
    13:00 +10°C° 0 mm 6 mps 749 mmHg 54%
    14:00 +11°C° 0 mm 6 mps 748 mmHg 53%
    15:00 +10°C° 0 mm 6 mps 748 mmHg 58%
    16:00 +9°C° 0 mm 5 mps 748 mmHg 63%
    17:00 +10°C° 0 mm 4 mps 748 mmHg 67%
    18:00 +8°C° 0 mm 5 mps 748 mmHg 71%
    19:00 +8°C° 0 mm 5 mps 748 mmHg 74%
    20:00 +8°C° 0 mm 6 mps 748 mmHg 77%
    21:00 +8°C° 0 mm 6 mps 747 mmHg 78%
    22:00 +6°C° 0 mm 7 mps 747 mmHg 79%
    23:00 +6°C° 0 mm 7 mps 747 mmHg 80%

    27 September, Thursday

    Time Temperature Precipitation Wind Pressure Humidity
    00:00 +6°C° 0 mm 7 mps 746 mmHg 77%
    01:00 +6°C° 0 mm 7 mps 746 mmHg 75%
    02:00 +6°C° 0 mm 8 mps 745 mmHg 72%
    03:00 +5°C° 0 mm 8 mps 744 mmHg 70%
    04:00 +5°C° 0 mm 8 mps 744 mmHg 69%
    05:00 +5°C° 0 mm 8 mps 743 mmHg 67%
    06:00 +6°C° 0 mm 9 mps 743 mmHg 67%
    07:00 +6°C° 0 mm 9 mps 742 mmHg 67%
    08:00 +6°C° 0 mm 10 mps 742 mmHg 67%
    09:00 +7°C° 0.1 mm 10 mps 742 mmHg 69%
    10:00 +7°C° 0.1 mm 10 mps 741 mmHg 71%
    11:00 +7°C° 0.1 mm 9 mps 741 mmHg 73%
    12:00 +7°C° 0.2 mm 9 mps 740 mmHg 75%
    13:00 +7°C° 0.2 mm 9 mps 740 mmHg 76%
    14:00 +7°C° 0.2 mm 9 mps 739 mmHg 78%
    15:00 +8°C° 0.3 mm 9 mps 739 mmHg 79%
    16:00 +8°C° 0.3 mm 9 mps 738 mmHg 79%
    17:00 +8°C° 0.3 mm 9 mps 738 mmHg 79%
    18:00 +9°C° 0 mm 8 mps 738 mmHg 80%
    19:00 +10°C° 0 mm 8 mps 738 mmHg 81%
    20:00 +10°C° 0 mm 8 mps 738 mmHg 82%
    21:00 +10°C° 0.1 mm 7 mps 738 mmHg 83%
    22:00 +10°C° 0.1 mm 7 mps 738 mmHg 84%
    23:00 +10°C° 0.1 mm 7 mps 738 mmHg 85%
    Show more